STARLINK-32564, 61924

Orbit data source: Space-Track

STARLINK-32564, 61924 is a payload satellite owned by SpaceX/Seattle (US) in LEO that was launched on Mon, 11 Nov 2024 UTC via an FALCON 9 launch vehicle from the Air Force Eastern Test Range (AFETR). Payload-class satellites include a variety of spacecraft equipped with specific instruments for various scientific and technological missions. These include communications satellites like Starlink; space stations such as the ISS; scientific satellites like the Hubble; Earth observation satellites from companies like Planet Labs, Umbra, and HawkEye 360; GPS; miniature CubeSats for education and research; and military/defense satellites.

Loading next visibility...
Identifier
61924, 2024-207N
Orbit
LEO
Country
Flag of USUS
Related business
Manufacturer
SpaceX/Seattle
Mission
Operational Commercial Communications
Bus & Motor
STARLINK V2M, Unknown motor
Mass
730 kg wet, ~700 kg dry
Launch date (UTC)
2024-11-11 (2 years ago)
Launch vehicle
FALCON 9
Launch site
Air Force Eastern Test Range (AFETR)
Object type
Payload
Rocket body
Debris
Shape & HBR
Box + 2 Pan, 17.7 m
Radar Cross Section
33.884 m², Large (>1 m²)

Expand to show TLE details & history
Last TLE update: 14 hours ago

TLE from 14 hours ago
0 STARLINK-32564
1 61924U 24207N   26263.05644046  .00009309  00000-0  34730-3 0  9996
2 61924  43.0054 267.8917 0001682 266.8139  93.2520 15.27586492104401
Epoch: 2026-09-20T01:21Z
TLE epoch observation values (Epoch: 2026-09-20T01:21:16.455Z)
Latitude
-0.00005°
Longitude
-111.38302°
Altitude
482.871 km
Speed
7.626 km/s
True Right ascension
17h 51m 33s
True Declination
0° 00' 00"
Sunlit
Object was in daylight at epoch
Visualization orbit readout
Latitude
Unknown
Longitude
Unknown
Altitude
Unknown
Speed
Unknown
Apparent Right ascension
Unknown
Apparent Declination
Unknown
Sunlit
N/A
Visualization observer readout
Local Sidereal Time
08:29:58
Azimuth
Unknown
Elevation
Unknown
Doppler factor
Unknown
Orbital elements
Apogee altitude
486.128 km
Perigee altitude
483.82 km
Semi-major axis
6,863.111 km
Eccentricity
0.00017
Inclination
43.0054°
RAAN
267.8917°
Arg. of periapsis
266.8139°
True anomaly
93.27124°
Mean anomaly
93.252°
Eccentric anomaly
93.26162°
Mean motion
3.81735 °/min
Orbital period
94.31 mins
BSTAR
0.0003473
Loading maneuver chart data...
Computing Atmospheric mass density...
Loading historical data...
Loading historical data...
Loading historical data...
Loading historical data...
Loading historical data...
Loading historical data...
Loading historical data...

Documentation

Showing up to 5 results
|